Regional Weather Roundup
Issued by NWS

Home | Current Version | Previous Version | Text Only | Print | Product List | Glossary Off
Versions: 1 2 3 4 5 6 7 8 9 10 11 12 13 14 15 16 17 18 19 20 21 22 23 24 25 26 27 28 29 30 31 32 33 34 35 36 37 38 39 40 41 42 43 44 45 46 47 48 49 50

585
ASUS43 KLSX 292210
RWRMO

WEATHER SUMMARY FOR MISSOURI
NATIONAL WEATHER SERVICE SPRINGFIELD MO
500 PM CDT MON AUG 29 2016

NOTE: "FAIR" INDICATES FEW OR NO CLOUDS BELOW 12,000 FEET WITH NO
       SIGNIFICANT WEATHER AND/OR OBSTRUCTIONS TO VISIBILITY.
       CURRENT SKY AND/OR WEATHER CONDITIONS ARE NOT AVAILABLE FOR
       CHILLICOTHE AND FARMINGTON.

MOZ001>031-035>038-043-044-053-054-292300-
...NORTHERN AND WESTERN MISSOURI...

CITY           SKY/WX    TMP DP  RH WIND       PRES   REMARKS
KANSAS CTY INT LGT RAIN  86  69  56 SE13      30.12S HX  90
KANSAS C DTWN  MOSUNNY   86  72  62 NE9       30.09F HX  92
LEE`S SUMMIT   SUNNY     87  73  62 E10       30.12F HX  94
ST JOSEPH      MOSUNNY   88  71  57 S9        30.10F HX  94
CHILLICOTHE      N/A     88  73  61 S6        30.12F HX  95
KIRKSVILLE     SUNNY     88  72  58 VRB5      30.13F HX  94

$$
MOZ066>068-077>081-088>096-101>105-292300-
...SOUTHWEST MISSOURI...

CITY           SKY/WX    TMP DP  RH WIND       PRES   REMARKS
SPRINGFIELD    MOSUNNY   91  65  41 SE8       30.10F HX  93
JOPLIN         SUNNY     89  72  56 NE7       30.08F HX  96
BRANSON        PTSUNNY   86  72  62 S12       30.12F THUNDER HX  92

$$
MOZ032>034-039>042-045>050-055>058-069>072-292300-
...CENTRAL MISSOURI...

CITY           SKY/WX    TMP DP  RH WIND       PRES   REMARKS
COLUMBIA       MOSUNNY   89  72  56 CALM      30.12F HX  96
JEFFERSON CITY SUNNY     89  74  60 E9        30.10F HX  98
ROLLA          MOSUNNY   87  71  58 E9        30.12F HX  93
SEDALIA        MOSUNNY   90  69  50 E5        30.13F HX  94
WHITEMAN AFB   MOSUNNY   89  73  60 SE8       30.10F HX  96
OSAGE BEACH    MOSUNNY   89  73  59 E6        30.11F HX  97

$$
MOZ051-052-059>065-292300-
...EAST CENTRAL MISSOURI...

CITY           SKY/WX    TMP DP  RH WIND       PRES   REMARKS
ST LOUIS INTL  MOSUNNY   92  69  47 E8        30.11F HX  97
SPIRIT OF STL  PTSUNNY   91  72  53 SE3       30.08F HX  98
ST CHARLES     SUNNY     90  73  57 SE7       30.09F HX  98

$$
MOZ072>076-082>087-097>100-106>115-292300-
...SOUTH CENTRAL AND SOUTHEAST MISSOURI...

CITY           SKY/WX    TMP DP  RH WIND       PRES   REMARKS
CAPE GIRARDEAU SUNNY     91  71  51 NE9       30.08F HX  97
FARMINGTON     CLOUDY    88  73  61 E6        30.13F HX  95
POPLAR BLUFF   SUNNY     90  75  61 NE8       30.06F HX 100
WEST PLAINS    MOSUNNY   89  71  55 NE12      30.13F HX  95

$$




USA.gov is the U.S. government's official web portal to all federal, state and local government web resources and services.